�N����,����,�~����,�C��,���x,�C��,����,���ϕ���,�ő�u�ԕ���,�ő厞����,���˗�,�I�_���x,�n�����x,�ő啗���N��,DTYPE
"16/06/22","00:10",0.0,22.4,91.3,1003.1,289.5,0.7,1.2,308.6,0.00,21.0,24.4,"00:02:24",1
"16/06/22","00:20",0.0,22.3,91.7,1003.1,288.6,0.6,1.0,290.0,0.00,20.9,24.6,"00:14:16",1
"16/06/22","00:30",0.0,22.1,91.4,1003.1,312.1,1.1,1.6,312.6,0.00,20.7,24.1,"00:20:48",1
"16/06/22","00:40",0.0,22.2,91.4,1003.1,322.8,1.2,2.5,342.9,0.00,20.8,24.3,"00:38:56",1
"16/06/22","00:50",0.0,22.2,91.5,1003.1,313.0,1.1,1.8,325.1,0.00,20.8,24.2,"00:46:32",1
"16/06/22","01:00",0.0,22.3,91.6,1003.1,323.2,1.3,3.1,353.5,0.00,20.9,24.1,"00:59:36",1
"16/06/22","01:10",0.0,22.3,91.3,1002.6,330.4,1.3,2.7,330.3,0.00,20.9,24.2,"01:08:16",1
"16/06/22","01:20",0.0,22.3,91.3,1002.6,313.6,1.1,2.0,329.2,0.00,20.9,24.0,"01:13:36",1
"16/06/22","01:30",0.0,22.2,91.3,1003.1,292.6,0.6,1.0,320.5,0.00,20.8,23.9,"01:25:36",1
"16/06/22","01:40",0.0,22.1,91.4,1002.9,299.5,0.8,1.4,315.8,0.00,20.7,24.2,"01:33:36",1
"16/06/22","01:50",0.0,22.0,91.3,1002.6,306.3,1.0,1.7,308.7,0.00,20.6,24.1,"01:48:48",1
"16/06/22","02:00",0.0,22.1,91.2,1002.4,320.3,1.1,2.5,345.5,0.00,20.6,23.9,"01:52:24",1
"16/06/22","02:10",0.0,22.2,91.1,1002.9,326.0,1.2,2.2,339.9,0.00,20.7,24.0,"02:04:08",1
"16/06/22","02:20",0.0,22.2,91.1,1003.1,306.4,1.1,1.7,318.9,0.00,20.7,23.8,"02:16:16",1
"16/06/22","02:30",0.0,22.2,91.2,1003.1,317.8,1.2,2.1,339.8,0.00,20.7,24.0,"02:24:48",1
"16/06/22","02:40",0.0,22.2,91.0,1003.4,322.6,1.6,3.1,346.4,0.00,20.7,24.0,"02:39:44",1
"16/06/22","02:50",0.0,22.3,90.8,1002.9,333.6,1.5,2.5,345.7,0.00,20.8,23.9,"02:48:32",1
"16/06/22","03:00",0.0,22.3,90.5,1003.1,330.2,1.5,2.2,340.6,0.00,20.7,23.7,"02:52:24",1
"16/06/22","03:10",0.0,22.2,90.6,1003.4,304.8,1.1,1.8,327.3,0.00,20.6,23.7,"03:02:16",1
"16/06/22","03:20",0.0,22.1,90.6,1003.1,308.8,1.1,1.7,325.3,0.00,20.5,23.7,"03:10:08",1
"16/06/22","03:30",0.0,22.1,90.7,1002.9,292.0,0.8,1.2,302.4,0.00,20.5,23.7,"03:20:08",1
"16/06/22","03:40",0.0,22.0,90.8,1002.9,299.3,0.8,1.1,299.0,0.00,20.5,23.8,"03:32:00",1
"16/06/22","03:50",0.0,22.0,91.0,1002.6,322.2,1.5,2.7,353.1,0.00,20.5,23.7,"03:46:40",1
"16/06/22","04:00",0.0,22.0,91.2,1002.6,322.1,1.2,2.4,342.6,0.00,20.5,23.7,"03:54:00",1
"16/06/22","04:10",0.0,22.0,91.4,1003.1,319.7,1.0,2.5,341.4,0.00,20.6,23.6,"04:08:40",1
"16/06/22","04:20",0.0,22.0,91.2,1003.1,313.7,1.3,2.9,342.7,0.00,20.5,23.6,"04:11:44",1
"16/06/22","04:30",0.0,21.9,91.2,1002.9,308.3,1.0,1.4,331.0,0.00,20.4,23.5,"04:20:24",1
"16/06/22","04:40",0.0,21.9,91.4,1003.6,285.9,0.8,1.2,306.6,0.00,20.5,23.6,"04:31:20",1
"16/06/22","04:50",0.0,22.0,91.5,1003.4,290.4,0.8,1.2,288.8,0.00,20.6,23.6,"04:41:28",1
"16/06/22","05:00",0.0,22.0,91.7,1003.4,303.2,1.0,1.3,328.7,0.00,20.6,23.7,"04:54:08",1
"16/06/22","05:10",0.0,22.0,91.7,1002.9,300.4,1.0,1.7,328.3,0.00,20.6,23.4,"05:02:40",1
"16/06/22","05:20",0.0,21.9,91.7,1003.6,284.8,0.8,1.1,277.9,0.00,20.5,23.5,"05:19:20",1
"16/06/22","05:30",0.0,22.0,91.8,1003.1,288.9,0.8,1.1,309.5,0.00,20.6,23.7,"05:23:12",1
"16/06/22","05:40",0.0,22.1,91.6,1003.6,305.5,1.0,1.4,314.7,0.00,20.7,23.6,"05:32:56",1
"16/06/22","05:50",0.0,22.2,91.8,1003.4,304.0,1.0,1.6,329.4,0.00,20.8,23.5,"05:46:24",1
"16/06/22","06:00",0.0,22.2,91.6,1003.1,305.9,1.1,1.4,307.0,0.01,20.8,23.5,"05:54:56",1
"16/06/22","06:10",0.0,22.4,91.5,1003.4,323.9,1.2,2.0,341.6,0.00,21.0,23.6,"06:04:16",1
"16/06/22","06:20",0.0,22.6,91.3,1003.6,320.9,1.2,2.0,336.6,0.00,21.1,23.5,"06:11:52",1
"16/06/22","06:30",0.0,22.7,90.9,1003.1,318.9,1.1,1.7,332.1,0.01,21.2,23.4,"06:26:40",1
"16/06/22","06:40",0.0,22.7,90.6,1003.4,302.7,1.0,1.7,349.1,0.01,21.1,23.5,"06:30:16",1
"16/06/22","06:50",0.0,22.8,90.5,1003.6,277.4,0.8,1.3,248.5,0.01,21.2,23.5,"06:41:20",1
"16/06/22","07:00",0.0,23.0,90.0,1003.6,288.8,0.7,0.8,293.8,0.02,21.3,23.5,"06:50:48",1
"16/06/22","07:10",0.0,23.0,89.7,1003.8,288.8,0.6,1.0,330.5,0.02,21.3,23.7,"07:02:16",1
"16/06/22","07:20",0.0,23.2,89.3,1003.4,275.6,0.5,0.9,251.7,0.02,21.4,23.5,"07:13:20",1
"16/06/22","07:30",0.0,23.3,89.1,1003.8,294.1,0.6,0.9,316.7,0.02,21.4,23.7,"07:23:28",1
"16/06/22","07:40",0.0,23.4,88.9,1003.6,302.1,0.6,1.1,333.3,0.02,21.5,23.5,"07:38:48",1
"16/06/22","07:50",0.0,23.4,89.2,1003.8,326.8,1.1,1.7,345.2,0.02,21.6,23.6,"07:40:40",1
"16/06/22","08:00",0.0,23.4,89.3,1003.1,326.1,1.1,1.7,345.3,0.04,21.6,23.5,"07:55:44",1
"16/06/22","08:10",0.0,23.7,88.5,1003.6,290.7,0.6,1.1,345.3,0.07,21.7,23.5,"08:00:40",1
"16/06/22","08:20",0.0,24.0,87.6,1003.8,284.9,0.6,0.9,277.1,0.08,21.9,23.6,"08:13:28",1
"16/06/22","08:30",0.0,24.3,85.3,1003.4,286.9,0.5,1.1,344.6,0.12,21.7,23.8,"08:27:20",1
"16/06/22","08:40",0.0,24.8,84.9,1003.1,256.9,0.2,1.1,234.7,0.13,22.1,23.9,"08:32:24",1
"16/06/22","08:50",0.0,24.7,82.6,1002.6,302.4,0.6,1.2,346.8,0.10,21.6,23.9,"08:46:56",1
"16/06/22","09:00",0.0,25.0,82.3,1003.1,264.7,0.5,1.6,235.3,0.09,21.8,23.9,"08:59:44",1
"16/06/22","09:10",0.0,24.8,83.0,1003.1,257.9,0.5,1.3,238.6,0.09,21.8,23.9,"09:00:08",1
"16/06/22","09:20",0.0,25.0,82.3,1002.6,212.3,0.5,1.6,225.9,0.12,21.8,24.1,"09:18:24",1
"16/06/22","09:30",0.0,25.0,81.6,1003.1,252.6,0.6,1.2,232.4,0.12,21.7,24.4,"09:27:28",1
"16/06/22","09:40",0.0,25.3,81.8,1002.9,304.5,0.5,1.1,336.3,0.12,22.0,24.1,"09:35:12",1
"16/06/22","09:50",0.0,25.8,79.8,1002.9,340.7,0.6,2.0,349.0,0.18,22.1,24.3,"09:49:12",1
"16/06/22","10:00",0.0,26.3,80.3,1002.6,353.3,0.8,1.8,349.0,0.24,22.7,24.2,"09:50:08",1
"16/06/22","10:10",0.0,26.7,76.5,1002.9,349.9,0.3,1.2,10.4,0.28,22.3,24.4,"10:08:16",1
"16/06/22","10:20",0.0,26.7,76.7,1002.4,99.5,0.6,1.2,118.8,0.27,22.3,24.6,"10:16:40",1
"16/06/22","10:30",0.0,27.0,75.5,1002.2,104.5,0.5,1.7,95.0,0.29,22.3,24.7,"10:21:12",1
"16/06/22","10:40",0.0,27.0,75.1,1002.4,155.5,0.7,2.0,209.6,0.25,22.3,24.8,"10:34:48",1
"16/06/22","10:50",0.0,27.1,74.0,1002.6,145.0,0.5,1.2,202.9,0.20,22.1,25.0,"10:40:48",1
"16/06/22","11:00",0.0,27.3,77.0,1002.2,65.5,0.6,1.6,33.4,0.26,23.0,25.2,"10:54:56",1
"16/06/22","11:10",0.0,27.8,73.0,1002.4,46.3,0.5,1.2,30.5,0.29,22.6,25.2,"11:01:44",1
"16/06/22","11:20",0.0,27.5,73.1,1002.6,212.6,0.6,1.3,345.7,0.27,22.3,25.4,"11:10:32",1
"16/06/22","11:30",0.0,27.1,72.9,1003.1,156.1,0.6,2.2,212.3,0.18,21.9,25.6,"11:27:12",1
"16/06/22","11:40",0.0,26.8,75.0,1002.4,204.3,1.0,2.5,227.6,0.14,22.0,25.6,"11:32:24",1
"16/06/22","11:50",0.0,26.9,75.8,1002.2,207.5,1.1,2.5,219.2,0.12,22.3,25.5,"11:40:56",1
"16/06/22","12:00",0.0,26.8,75.3,1001.7,214.8,0.6,2.4,226.1,0.12,22.1,25.8,"11:50:02",1
"16/06/22","12:10",0.0,27.1,75.5,1001.5,231.2,0.8,2.2,218.4,0.18,22.4,25.8,"12:08:24",1
"16/06/22","12:20",0.0,27.7,74.4,1001.2,212.8,1.3,2.8,207.0,0.31,22.8,25.8,"12:15:28",1
"16/06/22","12:30",0.0,27.7,72.6,1001.5,195.5,1.2,2.9,221.6,0.25,22.4,25.8,"12:20:02",1
"16/06/22","12:40",0.0,27.8,74.5,1001.5,170.0,0.8,2.9,218.4,0.24,22.9,25.9,"12:30:16",1
"16/06/22","12:50",0.0,27.6,74.8,1001.5,176.8,1.0,2.1,218.5,0.17,22.8,25.8,"12:42:08",1
"16/06/22","13:00",0.0,27.7,73.5,1001.5,184.2,0.8,1.9,187.4,0.18,22.6,26.0,"12:52:48",1
"16/06/22","13:10",0.0,27.6,73.8,1001.0,219.1,0.8,2.2,210.2,0.16,22.5,26.1,"13:04:16",1
"16/06/22","13:20",0.0,27.7,73.3,1000.5,207.8,1.1,2.6,196.7,0.16,22.5,26.1,"13:19:52",1
"16/06/22","13:30",0.0,28.0,72.2,1000.5,231.5,0.6,2.7,232.8,0.18,22.6,26.0,"13:22:00",1
"16/06/22","13:40",0.0,27.8,73.0,1000.5,203.0,1.2,2.6,231.3,0.21,22.6,26.2,"13:36:40",1
"16/06/22","13:50",0.0,27.6,73.1,1000.3,184.8,1.6,2.6,227.3,0.16,22.4,26.1,"13:40:24",1
"16/06/22","14:00",0.0,28.0,74.0,1000.0,191.9,1.6,3.4,210.6,0.22,23.0,26.2,"13:50:08",1
"16/06/22","14:10",0.0,28.0,70.6,1000.3,196.3,2.1,3.6,197.1,0.24,22.2,26.2,"14:06:08",1
"16/06/22","14:20",0.0,28.5,71.0,1000.0,177.1,1.6,3.4,219.2,0.28,22.8,26.2,"14:18:32",1
"16/06/22","14:30",0.0,28.8,67.7,1000.0,183.5,2.2,4.1,201.1,0.38,22.3,26.5,"14:24:00",1
"16/06/22","14:40",0.0,29.0,68.1,1000.0,178.1,1.8,5.1,221.4,0.34,22.6,26.4,"14:30:32",1
"16/06/22","14:50",0.0,28.4,68.2,1000.0,197.2,2.8,4.7,223.8,0.23,22.0,26.5,"14:46:40",1
"16/06/22","15:00",0.0,28.4,68.4,1000.0,192.7,2.0,4.0,197.9,0.24,22.1,26.6,"14:58:56",1
"16/06/22","15:10",0.0,28.2,69.0,999.6,196.3,1.8,3.2,205.6,0.20,22.0,26.5,"15:00:40",1
"16/06/22","15:20",0.0,28.0,69.6,999.6,185.7,1.6,3.9,205.7,0.15,22.0,26.4,"15:14:56",1
"16/06/22","15:30",0.0,27.9,69.8,999.3,201.4,1.8,4.0,223.4,0.08,21.9,26.7,"15:26:56",1
"16/06/22","15:40",0.0,27.5,71.4,999.1,202.5,2.0,3.5,218.1,0.07,21.9,26.6,"15:34:56",1
"16/06/22","15:50",0.0,27.3,70.4,998.9,197.7,1.8,3.9,210.0,0.03,21.5,26.4,"15:49:36",1
"16/06/22","16:00",0.0,27.0,71.2,999.1,191.8,1.8,3.7,220.9,0.02,21.4,26.4,"15:54:32",1
"16/06/22","16:10",0.0,26.8,72.6,999.1,183.9,1.2,2.7,211.9,0.02,21.5,26.3,"16:00:08",1
"16/06/22","16:20",0.0,26.7,71.9,999.3,174.2,1.6,3.2,138.7,0.04,21.3,26.0,"16:12:32",1
"16/06/22","16:30",0.0,26.7,72.6,999.6,181.6,1.7,3.6,149.4,0.03,21.4,26.1,"16:29:20",1
"16/06/22","16:40",0.0,26.6,74.6,999.1,207.9,2.0,3.3,230.0,0.01,21.8,26.2,"16:33:52",1
"16/06/22","16:50",0.0,26.2,75.0,999.6,207.4,1.7,3.9,207.1,0.01,21.5,26.0,"16:49:44",1
"16/06/22","17:00",0.0,25.8,74.8,999.8,221.1,1.7,3.6,213.7,0.00,21.0,25.9,"16:56:08",1
"16/06/22","17:10",0.0,25.3,81.2,999.8,203.4,2.0,5.5,200.7,0.00,21.9,25.8,"17:06:48",1
"16/06/22","17:20",2.2,24.0,86.1,1000.0,177.9,1.8,4.2,187.3,0.00,21.6,25.7,"17:11:28",1
"16/06/22","17:30",1.2,23.5,87.9,999.8,188.9,0.7,1.7,121.9,0.00,21.4,25.5,"17:27:20",1
"16/06/22","17:40",2.0,23.2,88.8,1000.3,281.6,0.5,1.1,239.3,0.00,21.3,25.5,"17:35:36",1
"16/06/22","17:50",2.6,23.0,89.9,1000.3,15.7,0.3,1.2,200.7,0.00,21.3,25.3,"17:40:16",1
"16/06/22","18:00",1.2,22.8,90.7,1000.5,12.9,0.8,1.9,348.8,0.00,21.2,25.1,"17:56:48",1
"16/06/22","18:10",1.0,22.6,91.0,1000.8,46.5,0.5,1.4,102.2,0.00,21.1,25.1,"18:00:56",1
"16/06/22","18:20",0.4,22.4,91.1,1000.8,345.1,0.5,1.9,347.2,0.00,20.9,25.1,"18:13:52",1
"16/06/22","18:30",0.2,22.2,91.2,1001.0,330.5,0.2,0.9,346.8,0.00,20.7,25.1,"18:27:20",1
"16/06/22","18:40",0.2,22.1,91.0,1000.8,11.3,0.2,0.9,157.0,0.00,20.6,25.1,"18:33:30",1
"16/06/22","18:50",0.0,22.0,91.0,1001.0,229.8,0.1,0.5,194.4,0.00,20.5,25.1,"18:49:20",1
"16/06/22","19:00",0.0,21.9,91.1,1001.2,241.1,0.1,0.5,178.4,0.00,20.4,24.7,"18:51:28",1
"16/06/22","19:10",0.0,21.9,91.6,1001.2,333.6,0.0,0.4,21.4,0.00,20.5,24.6,"19:09:52",1
"16/06/22","19:20",0.2,21.9,91.9,1001.5,357.9,0.5,1.0,9.9,0.00,20.6,24.8,"19:14:08",1
"16/06/22","19:30",0.0,21.8,92.3,1001.5,342.4,0.2,0.6,12.6,0.00,20.5,24.7,"19:21:12",1
"16/06/22","19:40",0.0,21.8,92.6,1001.2,323.2,0.1,1.0,339.2,0.00,20.6,24.6,"19:30:08",1
"16/06/22","19:50",0.0,21.7,92.8,1001.2,351.8,0.2,0.6,19.1,0.00,20.5,24.4,"19:44:32",1
"16/06/22","20:00",0.0,21.7,92.8,1001.2,284.9,0.2,1.0,353.0,0.00,20.5,24.6,"19:52:24",1
"16/06/22","20:10",0.2,21.6,92.9,1001.0,253.8,0.1,0.5,239.3,0.00,20.4,24.3,"20:04:32",1
"16/06/22","20:20",0.0,21.7,93.2,1001.7,308.2,0.2,0.6,348.8,0.00,20.6,24.3,"20:15:28",1
"16/06/22","20:30",0.0,21.7,93.5,1001.5,256.4,0.1,0.6,232.3,0.00,20.6,24.5,"20:27:04",1
"16/06/22","20:40",0.0,21.6,93.5,1001.5,241.0,0.1,0.5,253.7,0.00,20.5,24.2,"20:35:12",1
"16/06/22","20:50",0.0,21.6,93.6,1001.2,315.0,0.3,0.9,8.2,0.00,20.6,24.3,"20:46:24",1
"16/06/22","21:00",0.0,21.6,93.8,1001.7,304.8,0.2,0.5,252.5,0.00,20.6,24.2,"20:50:08",1
"16/06/22","21:10",0.0,21.6,93.8,1001.7,314.3,0.1,0.9,357.6,0.00,20.6,24.2,"21:09:28",1
"16/06/22","21:20",0.0,21.6,94.0,1001.5,301.9,0.1,1.0,329.2,0.00,20.6,24.2,"21:11:36",1
"16/06/22","21:30",0.0,21.7,94.2,1001.5,310.4,0.1,0.5,4.9,0.00,20.8,24.1,"21:28:24",1
"16/06/22","21:40",0.0,21.8,94.3,1001.7,312.3,0.1,0.9,330.7,0.00,20.9,24.0,"21:31:52",1
"16/06/22","21:50",0.0,21.8,94.4,1001.5,306.7,0.1,0.8,18.8,0.00,20.9,24.2,"21:40:08",1
"16/06/22","22:00",0.0,21.7,94.4,1001.5,274.3,0.0,0.4,237.2,0.00,20.8,24.2,"21:52:56",1
"16/06/22","22:10",0.2,21.7,94.5,1001.5,263.6,0.1,0.6,234.0,0.00,20.8,24.1,"22:02:48",1
"16/06/22","22:20",0.2,21.7,94.5,1001.0,312.8,0.0,0.3,310.3,0.00,20.8,23.9,"22:10:08",1
"16/06/22","22:30",0.4,21.6,94.5,1001.0,287.8,0.0,0.4,255.7,0.00,20.7,24.0,"22:29:52",1
"16/06/22","22:40",0.2,21.5,94.5,1001.0,285.2,0.1,0.4,257.2,0.00,20.6,23.8,"22:31:12",1
"16/06/22","22:50",0.8,21.5,94.7,1001.0,35.1,0.1,1.0,7.1,0.00,20.7,24.0,"22:40:56",1
"16/06/22","23:00",0.6,21.5,94.8,1000.8,290.7,0.1,0.4,278.2,0.00,20.7,23.8,"22:52:16",1
"16/06/22","23:10",0.4,21.6,94.8,1000.5,302.2,0.1,0.6,354.4,0.00,20.8,23.9,"23:08:40",1
"16/06/22","23:20",0.4,21.5,94.8,1000.3,345.3,0.5,0.9,357.2,0.00,20.7,23.8,"23:11:52",1
"16/06/22","23:30",0.0,21.5,94.9,1000.0,347.4,0.1,0.8,335.6,0.00,20.7,23.8,"23:20:08",1
"16/06/22","23:40",0.0,21.4,94.9,1000.8,312.3,0.1,0.6,342.1,0.00,20.6,23.7,"23:38:24",1
"16/06/22","23:50",0.2,21.4,95.0,1000.0,345.2,0.6,1.6,350.8,0.00,20.6,23.7,"23:49:28",1
"16/06/22","24:00",0.0,21.5,95.0,1000.3,266.0,0.6,1.7,359.9,0.00,20.7,23.6,"23:50:32",1
